Current weather by "City, St" or "zip code"  
 
Advertise Here

Current Conditions: Greenville, ME

NULL


23.0 F

Last Updated on Jan 18 2021, 4:56 am EST
Humidity: 74%
Wind Speed: 3.5 mph
Barometer 29.36 in
Dewpoint: 16.0 F
Visibility: NULL mi
Precip: --
Heat Index: NA
Wind Chill: NA
Current conditions at:

Greenville, ME (KGNR)

Lat: 45.46462 Lon: 69.5538

Local Radar Image active severe weather and emergency alerts image image weather storm and storm spotter reports image weather observation monitoring service image
Local
Radar
Active
Alerts
Storm Reports Obs
Monitoring

Sign-up For Email & Text Message Weather Alert Notification Services


Advertise Here

Observation History for Greenville, ME


Time Wind
(mph)
Vis
(mi)
Weather Precip (in) Temperature (F) Relative
Humidity
Wind
Chill
(F)
Heat
Index
(F)
Pressure
Air Dwpt altimeter
(in)
sea level
(mb)
Rmks
4:56 am EST 3.5 NULL NULL -- 23.0 16.0 74% NA NA 29.36 996.3
3:56 am EST 5.8 NULL NULL -- 24.0 16.0 71% 17 NA 29.37 996.3
2:56 am EST N 0.0 NULL NULL -- 25.0 17.1 72% NA NA 29.37 996.3
1:56 am EST NULL NULL -- 25.0 18.0 75% NA NA 29.35 995.8
12:56 am EST N 0.0 NULL NULL -- 25.0 19.0 78% NA NA 29.34 995.1
11:56 pm EST 4.6 NULL NULL -- 26.0 19.9 78% 20 NA 29.33 995.0
10:56 pm EST W 9.2 G 20.7 NULL NULL -- 27.0 18.0 69% 18 NA 29.31 994.5
9:56 pm EST 6.9 NULL NULL -- 27.0 19.0 72% 20 NA 29.30 993.8
8:56 pm EST W 9.2 NULL NULL -- 28.0 19.9 72% 19 NA 29.26 992.7
7:56 pm EST NW 8.1 NULL NULL -- 29.0 21.0 72% 21 NA 29.24 991.8
6:56 pm EST W 12.7 G 28.8 NULL NULL -- 29.0 19.9 69% 19 NA 29.21 990.9
5:56 pm EST NW 15.0 G 29.9 NULL NULL -- 30.0 21.0 69% 19 NA 29.19 990.0
4:56 pm EST W 13.8 G 27.6 NULL NULL -- 30.0 21.0 69% 19 NA 29.17 989.2
3:56 pm EST 5.8 NULL NULL -- 31.0 21.9 69% 25 NA 29.14 988.4
2:56 pm EST NW 15.0 G 23.0 NULL NULL -- 31.0 21.9 69% 20 NA 29.12 987.5
1:56 pm EST W 9.2 G 17.3 NULL NULL -- 31.0 23.0 72% 23 NA 29.09 986.3
12:56 pm EST W 11.5 G 24.2 NULL NULL -- 32.0 23.0 69% 23 NA 29.06 985.5
11:56 am EST 6.9 G 20.7 NULL NULL -- 30.0 23.0 75% 23 NA 29.04 984.8
10:56 am EST W 8.1 G 18.4 NULL NULL -- 29.0 21.9 75% 21 NA 29.02 984.3
9:56 am EST W 9.2 NULL NULL -- 28.0 23.0 81% 19 NA 29.04 984.7
8:56 am EST W 8.1 G 19.6 NULL NULL -- 28.0 23.0 81% 20 NA 29.03 984.4
7:56 am EST W 12.7 G 25.3 NULL NULL -- 28.0 23.0 81% 17 NA 29.01 983.9
6:56 am EST NW 10.4 G 19.6 NULL NULL -- 30.0 26.1 85% 21 NA 28.98 982.7
5:56 am EST NW 10.4 G 26.5 NULL NULL -- 31.0 27.0 85% 22 NA 28.96 982.2

Regional Weather Observation


Millinocket, Millinocket Municipal Airport, ME (KMLT)

Overcast
29.0 F

Clayton Lake, ME (K40B)

NULL
23.0 F

Waterville, Waterville Robert LaFleur Airport, ME (KWVL)

Overcast
32.0 F

Bangor, Bangor International Airport, ME (KBGR)

Overcast
34.0 F

Augusta, Augusta State Airport, ME (KAUG)

Overcast
31.0 F

Presque Isle, ME (KPQI)

Light Snow
27.0 F